EST,Max TemperatureF,Mean TemperatureF,Min TemperatureF,Max Dew PointF,MeanDew PointF,Min DewpointF,Max Humidity, Mean Humidity, Min Humidity, Max Sea Level PressureIn, Mean Sea Level PressureIn, Min Sea Level PressureIn, Max VisibilityMiles, Mean VisibilityMiles, Min VisibilityMiles, Max Wind SpeedMPH, Mean Wind SpeedMPH, Max Gust SpeedMPH,PrecipitationIn, CloudCover, Events, WindDirDegrees
2013-11-1,55,50,45,48,42,38,87,77,60,29.77,29.64,29.44,10,10,7,16,11,28,0.22,7,Rain,254
2013-11-2,52,46,40,42,38,33,89,76,50,30.13,29.91,29.77,10,9,5,13,7,23,0.01,6,Rain,286
2013-11-3,54,42,30,39,33,28,92,74,43,30.33,30.26,30.13,10,8,0,8,3,,0.00,2,Fog,91
2013-11-4,53,47,41,39,35,32,74,63,50,30.34,30.30,30.26,10,10,10,12,7,20,0.00,0,,151
2013-11-5,56,52,48,46,41,38,86,67,55,30.36,30.28,30.13,10,9,5,13,6,18,0.01,4,Rain,163
2013-11-6,59,50,40,52,45,36,88,75,55,30.13,30.04,29.92,10,8,2,21,12,28,0.22,8,Rain,220
2013-11-7,48,39,30,36,29,22,88,68,36,30.30,30.22,30.12,10,10,10,16,8,25,0.08,2,,279
2013-11-8,50,38,27,32,27,23,89,66,35,30.36,30.27,30.16,10,9,5,12,4,,0.00,0,,235
2013-11-9,60,51,42,38,32,24,66,49,40,30.16,30.06,29.99,10,10,10,21,12,29,0.00,0,,226
2013-11-10,47,38,29,34,30,26,88,68,47,30.35,30.28,30.12,10,10,10,14,8,22,0.00,1,,283
2013-11-11,50,40,29,38,31,26,90,72,48,30.37,30.21,30.10,10,9,2,16,7,23,0.03,7,Rain-Snow,245
2013-11-12,34,28,22,26,21,18,84,73,59,30.63,30.56,30.37,10,10,5,13,7,18,0.00,4,Snow,328
2013-11-13,38,28,18,20,16,11,86,61,33,30.62,30.52,30.33,10,10,10,15,6,20,0.00,0,,233
2013-11-14,53,42,30,19,17,14,62,40,23,30.32,30.19,30.09,10,10,10,17,11,24,0.00,0,,207
2013-11-15,53,48,42,34,23,15,72,42,31,30.11,30.07,30.04,10,10,10,14,9,20,0.00,1,,197
2013-11-16,61,50,40,56,46,34,89,82,69,30.06,29.95,29.76,10,7,2,20,11,28,0.00,6,Rain-Thunderstorm,161
2013-11-17,68,58,47,60,52,38,89,78,51,29.81,29.64,29.40,10,9,2,31,15,48,0.72,5,Rain-Thunderstorm,205
2013-11-18,48,40,31,37,31,24,79,64,40,30.22,30.02,29.82,10,10,10,25,14,34,0.01,0,,282
2013-11-19,41,34,26,27,25,23,88,73,55,30.35,30.30,30.22,10,10,7,10,5,,0.00,0,,43
2013-11-20,47,36,25,32,27,22,87,68,48,30.32,30.24,30.17,10,10,10,12,6,,0.00,1,,123
2013-11-21,50,46,43,47,40,31,90,79,55,30.26,30.21,30.18,10,6,2,9,6,,0.01,8,Rain,156
2013-11-22,50,40,31,48,39,28,92,86,73,30.44,30.29,30.16,10,6,1,16,6,25,0.00,7,Rain,324
2013-11-23,31,25,19,27,18,9,85,70,51,30.60,30.47,30.40,10,10,7,17,9,26,0.03,4,Snow,317
2013-11-24,27,20,13,14,9,3,84,64,37,30.69,30.60,30.49,10,10,10,13,6,18,0.02,1,,299
2013-11-25,32,25,18,19,13,10,75,54,41,30.49,30.28,30.15,10,10,10,13,7,20,0.00,5,,203
2013-11-26,36,32,28,26,23,19,83,69,57,30.17,30.05,29.96,10,10,5,15,5,23,0.00,8,Rain-Snow,270
2013-11-27,29,23,17,24,14,10,80,68,55,30.28,30.13,30.00,10,9,4,16,10,22,0.00,5,Snow,297
2013-11-28,35,26,17,17,13,9,79,61,37,30.42,30.30,30.22,10,10,10,16,7,23,0.00,3,,226
2013-11-29,37,26,14,21,17,10,86,67,44,30.62,30.54,30.45,10,10,7,8,4,,0.00,0,,112
2013-11-30,51,38,26,25,22,19,80,56,28,30.47,30.29,30.13,10,10,7,17,7,23,0.00,0,,182